Cosmos 1470 - Orbit

View from above orbital plane
View from above orbital plane
View from above satellite
View from above satellite

Ground track
Ground track

The orbit data is extracted from the following two-line orbital elements,

1 14147U 83061A   13145.13359088  .00003606  00000-0  25576-3 0  7166
2 14147 082.5102 048.7493 0013674 337.2825 022.7795 15.04417739381110
Epoch (UTC): 25 May 2013 03:12:22
Eccentricity: 0.0013674
inclination: 82.5102°
perigee height: 544 km
apogee height: 563 km
right ascension of ascending node: 48.7493°
argument of perigee: 337.2825°
revolutions per day: 15.04417739
mean anomaly at epoch: 22.7795°
orbit number at epoch: 38111

The dashed part of the orbit path shows where the satellite is in the earth's shadow,  

Developed and maintained by Chris Peat, Heavens-Above GmbH. Please read the updated FAQ before sending e-mail. Imprint. DLR